Wind_Speed
13 13 13 13 11 11 11 11 12 12 12 13 13 13 13 15 16 10 10 3 5 7 8 12 11 12 6 11 10 19 6 7 9 4 12 9 14 7 12 8 10 3 20 27 27
13 13 13 12 12 11 12 13 13 13 13 13 13 13 13 17 15 17 14 7 7 7 10 14 9 7 10 10 6 5 1 6 7 4 12 5 11 9 4 12 10 18 23 30 24
13 13 12 12 12 12 13 14 13 14 13 13 13 12 13 14 10 2 13 10 7 9 16 20 8 10 12 4 9 6 4 9 14 10 11 10 7 14 5 10 13 22 20 23 27
14 13 13 12 13 13 13 15 15 13 12 12 12 12 12 5 2 5 8 9 8 9 12 14 10 10 7 8 13 6 9 8 10 2 8 13 12 11 12 7 12 19 25 21 19
15 13 13 13 14 14 14 15 14 13 11 11 11 12 6 8 8 4 8 11 11 8 14 10 5 7 10 10 18 7 9 2 7 3 14 4 9 7 12 8 13 18 18 24 19
15 15 14 14 14 15 15 15 15 14 12 10 10 9 5 12 6 7 10 11 11 13 17 8 9 21 10 6 3 18 5 11 7 5 5 4 10 10 8 10 13 16 14 16 23
15 15 15 15 15 16 16 15 15 13 11 8 7 5 10 15 2 8 11 13 14 14 15 7 5 10 13 11 19 8 9 7 5 3 3 6 7 6 14 11 12 14 14 13 17
17 16 16 16 16 17 17 15 13 10 8 6 5 5 8 11 11 12 13 14 15 14 17 10 3 8 16 15 13 9 10 7 17 5 6 4 7 9 15 14 12 13 11 12 11
19 18 17 17 17 18 16 15 11 7 5 4 5 9 14 10 15 14 17 17 16 14 11 11 7 13 8 7 5 8 2 8 11 13 4 5 4 6 15 14 15 15 14 13 13
20 19 18 17 17 18 15 13 10 7 6 6 14 8 18 16 16 22 19 18 15 13 12 10 8 13 15 7 3 8 4 13 10 7 8 8 11 13 15 15 16 16 16 16 17
21 20 19 17 16 17 17 7 5 6 14 13 15 13 6 19 17 21 19 18 14 13 15 15 12 15 10 3 11 7 2 14 6 8 1 7 9 10 6 15 13 16 17 18 17
21 21 21 18 16 14 12 6 11 9 9 23 21 19 20 10 8 14 21 17 17 17 16 16 15 20 7 6 6 8 14 9 3 6 5 10 12 13 12 14 15 17 16 20 17
22 22 22 17 18 12 12 16 10 11 8 16 24 20 16 8 16 18 21 21 17 19 19 19 20 15 12 10 11 17 12 2 10 2 11 11 17 18 14 14 13 12 15 21 22
23 22 22 19 9 9 13 9 10 8 6 15 23 19 20 14 19 19 25 21 17 20 19 18 21 18 12 13 18 13 10 7 7 9 10 3 11 10 9 6 10 10 15 14 25
23 23 20 14 15 7 7 3 3 6 6 8 20 10 17 19 7 22 27 22 23 20 17 18 20 19 12 13 8 3 5 7 13 13 12 16 11 4 8 10 14 15 6 6 23
24 24 22 4 8 14 8 6 6 6 12 8 9 11 21 24 21 14 21 19 21 22 20 19 18 17 20 11 16 13 8 9 14 12 12 16 14 11 2 7 5 24 8 3 4
27 25 20 11 7 6 9 8 6 10 15 12 16 15 19 20 22 20 20 22 21 20 22 22 21 18 17 11 16 17 13 11 11 8 4 15 14 8 6 18 17 3 8 6 4
28 22 17 20 11 11 10 8 11 13 25 10 15 16 20 21 21 22 20 21 23 26 16 18 17 22 11 18 17 17 17 11 16 4 5 7 7 7 26 2 4 10 10 8 4
27 11 8 9 18 12 8 12 10 18 15 19 11 16 16 19 14 24 19 20 22 24 23 17 20 17 21 16 17 20 20 10 22 7 9 8 19 27 7 21 9 4 10 14 9
15 14 19 13 16 14 10 20 17 23 11 16 11 12 16 20 23 21 20 19 22 25 26 23 19 20 22 19 17 21 5 4 9 14 13 13 5 2 9 17 5 31 7 10 12
6 5 14 13 17 8 14 20 22 25 13 8 12 14 14 16 22 19 23 18 22 22 21 23 22 17 17 13 18 13 8 4 1 10 2 6 2 8 6 3 13 21 4 4 14
9 8 15 17 8 10 15 23 19 23 10 12 16 18 17 14 16 21 19 19 18 21 25 24 19 15 17 17 14 18 18 21 13 7 7 10 5 23 12 9 15 27 12 10 8
4 7 11 17 8 13 17 22 24 24 22 8 16 15 17 11 15 15 18 19 14 16 19 19 18 17 15 15 16 13 16 19 17 17 16 8 6 7 12 14 14 8 7 7 5
5 4 5 9 13 18 17 19 21 24 25 15 15 17 14 13 16 14 11 16 15 12 7 16 20 17 14 16 15 18 17 17 19 14 13 7 4 16 17 12 17 12 10 7 7
5 8 7 8 13 18 19 20 19 21 23 15 15 15 9 14 16 16 11 15 11 7 5 14 18 20 21 22 19 14 16 16 16 19 18 20 31 28 14 14 17 25 11 6 8
5 7 11 13 13 19 18 20 19 18 20 17 19 12 13 16 16 14 11 12 14 11 12 16 15 16 20 19 19 15 11 8 15 13 14 16 16 2 19 13 7 12 20 6 11
14 15 8 10 13 13 14 19 18 15 18 19 19 15 17 20 13 11 11 16 16 14 16 16 14 16 16 16 15 16 13 14 16 11 11 11 13 9 9 15 17 20 4 13 11
Wind_Direction
7 4 2 5 3 353 348 347 345 341 337 331 329 325 321 313 307 291 260 168 204 255 226 249 236 246 227 260 208 166 198 109 124 245 118 122 97 74 118 109 60 106 141 147 164
6 3 0 1 359 353 346 344 343 340 336 330 328 324 320 321 313 268 246 243 257 237 226 230 222 251 244 213 14 311 239 126 158 165 121 133 90 144 153 133 114 95 125 143 144
4 0 359 355 355 352 344 339 339 335 332 326 323 320 318 331 281 230 201 217 237 230 249 290 298 293 272 322 198 225 231 80 93 145 109 110 98 109 45 98 146 129 139 144 143
359 356 353 351 349 349 344 336 331 331 323 322 316 314 316 316 298 110 184 198 201 218 259 264 261 5 342 280 159 271 45 86 98 48 106 117 76 68 66 56 112 127 142 143 158
356 350 347 345 341 342 340 336 326 324 320 313 311 313 324 236 258 163 187 180 182 212 247 225 341 86 219 289 41 318 102 111 97 133 100 139 101 56 89 95 117 130 153 153 159
353 346 340 337 335 335 336 334 326 317 313 305 302 308 262 250 99 152 162 180 197 219 233 231 226 181 219 87 13 264 358 122 158 141 128 119 128 116 126 117 131 141 165 174 161
348 341 335 332 330 330 330 331 325 315 309 299 286 290 264 243 168 170 189 203 215 227 249 222 308 344 345 317 200 244 344 171 107 109 95 308 360 42 134 139 148 160 168 183 176
348 341 333 329 326 325 324 321 319 310 301 289 262 244 259 251 232 219 204 213 226 237 267 284 233 269 114 264 264 224 21 51 302 290 111 149 244 244 146 151 164 166 178 173 202
346 341 332 326 325 322 317 312 305 289 282 258 245 218 257 175 216 221 207 216 219 232 249 293 273 271 269 270 340 25 329 268 268 254 194 213 187 195 162 175 175 179 178 180 182
341 336 330 325 324 323 314 303 290 266 250 249 266 256 252 224 208 209 208 216 213 223 231 237 248 249 242 205 200 183 194 246 179 262 189 229 236 198 184 191 183 185 180 184 178
338 333 327 326 324 323 323 306 211 203 228 220 189 214 97 222 187 202 196 213 210 225 224 215 235 251 226 119 217 234 228 268 215 178 212 259 263 260 211 193 202 193 184 185 188
336 332 327 325 316 307 297 253 24 336 294 225 252 233 269 153 185 196 193 206 205 218 224 239 219 252 83 204 297 260 241 255 305 99 270 266 269 275 235 214 220 198 197 184 184
337 332 329 325 311 284 226 255 324 313 269 264 214 228 219 189 215 207 198 207 210 221 225 234 236 220 188 203 215 244 240 98 303 232 253 251 269 270 226 227 233 236 205 190 178
337 332 331 327 307 324 254 250 247 270 275 249 202 216 222 198 234 234 196 211 224 223 231 243 247 256 200 241 224 257 94 274 275 284 273 198 271 275 179 214 201 217 216 213 175
335 332 325 331 302 272 29 308 257 244 272 169 169 164 199 196 217 207 192 213 222 221 230 235 239 251 237 231 260 202 207 227 259 270 284 271 240 190 150 214 9 290 56 243 171
329 327 320 321 248 256 307 287 232 227 243 140 134 201 196 204 232 204 204 205 232 240 234 251 248 232 256 211 235 190 178 224 256 256 253 348 281 69 78 133 152 264 115 333 248
324 318 300 277 213 332 237 241 209 233 238 158 168 195 210 197 215 227 192 197 216 222 235 235 242 248 229 262 237 224 237 255 244 225 272 31 343 303 273 176 203 244 133 138 289
320 304 276 250 247 264 261 215 235 212 245 149 183 190 206 206 208 215 195 213 209 231 225 228 224 234 180 232 246 242 248 250 266 244 333 49 211 269 298 65 147 198 159 129 196
322 292 237 242 215 224 227 215 214 241 201 237 179 184 202 218 206 224 203 215 217 219 233 230 230 207 231 206 243 243 239 271 276 233 255 164 239 187 307 5 341 128 161 159 141
319 287 242 194 184 209 222 235 232 255 316 302 213 219 217 202 209 203 204 223 224 212 231 246 262 220 205 206 216 243 31 29 322 290 250 258 88 38 10 70 329 283 13 149 141
261 230 120 155 173 212 220 228 241 271 297 274 284 274 227 232 204 214 216 218 210 222 213 243 257 270 220 191 215 217 123 114 345 268 276 351 48 355 80 114 278 286 125 45 146
279 256 155 164 190 217 227 235 247 260 214 254 272 284 281 256 224 213 232 215 206 208 213 226 249 256 215 201 216 250 236 193 214 170 185 197 212 203 146 155 246 262 43 50 9
259 211 163 194 220 225 227 239 244 256 257 215 243 253 280 279 269 248 208 239 214 204 220 207 236 255 250 229 193 220 247 264 232 251 241 227 138 8 181 255 230 101 106 120 69
274 202 154 212 245 263 240 221 237 242 259 245 242 249 244 267 264 267 222 233 208 184 336 222 223 232 246 241 202 209 222 238 254 260 281 337 291 24 327 323 334 346 107 92 140
249 252 332 183 223 235 255 260 223 233 234 239 250 253 242 250 238 249 219 225 148 106 247 231 219 232 233 266 273 219 216 221 250 275 284 190 247 186 175 270 22 321 305 115 135
289 316 349 303 264 205 229 253 262 229 237 209 246 236 246 261 254 246 232 237 171 167 225 215 235 239 248 250 260 263 264 261 217 240 265 280 297 273 146 127 109 271 287 23 58
354 333 291 286 280 274 217 232 247 266 226 235 213 237 241 240 286 345 340 294 171 199 199 221 216 236 240 235 257 258 250 251 263 255 262 254 266 292 164 154 151 237 12 38 25
Height
799 797 795 794 792 790 788 787 785 784 782 780 778 776 773 770 767 765 760 755 754 754 753 751 747 744 746 741 733 750 776 770 765 773 754 739 747 743 741 749 751 751 764 777 785
800 798 796 794 793 790 788 787 785 783 782 779 778 776 773 770 766 761 754 753 753 753 752 744 738 737 741 736 744 748 760 760 741 744 745 743 743 744 747 752 760 760 768 779 786
800 798 796 794 793 791 788 786 785 783 781 779 777 775 773 772 765 746 749 751 751 751 750 745 740 738 744 735 763 743 749 729 734 729 732 738 742 736 752 760 759 768 774 780 790
801 799 796 794 792 791 788 785 784 783 780 779 777 775 773 773 771 748 748 750 751 752 753 743 741 757 783 758 730 745 726 728 731 726 729 745 737 747 751 755 745 756 769 780 787
801 798 796 794 792 790 788 785 782 781 781 778 777 775 774 768 753 748 749 749 751 753 751 738 745 778 790 751 739 747 732 729 727 727 731 733 744 750 754 749 749 758 766 775 785
800 798 796 793 791 789 787 785 782 779 779 778 777 776 776 771 748 748 750 750 751 752 743 736 742 748 757 760 771 739 731 731 731 732 733 745 743 750 754 750 755 762 767 769 777
800 797 795 792 790 788 786 784 781 778 777 777 777 777 770 754 747 749 750 750 750 747 739 735 737 740 739 755 738 733 760 738 736 736 748 738 757 761 747 752 759 763 766 768 768
799 797 794 792 789 786 783 782 780 777 776 775 776 777 764 742 748 748 748 748 748 745 741 738 741 742 773 750 742 746 767 807 762 742 743 749 788 761 743 752 761 760 764 768 769
799 796 794 791 788 784 781 779 777 777 775 774 775 772 757 745 746 745 745 744 745 743 741 739 741 744 740 751 770 779 829 801 790 742 745 750 768 749 736 744 753 755 759 764 769
798 795 793 789 786 783 779 776 775 774 774 776 773 771 746 740 737 741 741 742 741 741 742 743 745 752 744 755 810 799 806 780 777 767 747 754 752 737 730 735 741 746 751 757 761
797 793 790 788 785 782 778 776 773 772 769 752 744 740 726 732 731 736 738 740 739 743 759 744 762 764 748 754 757 756 770 769 753 740 751 754 750 736 726 729 735 737 742 750 754
795 791 788 785 783 781 779 771 756 758 758 743 740 734 729 730 738 733 736 743 746 760 748 754 765 737 734 740 754 756 761 758 742 737 747 750 748 729 722 724 722 726 730 738 746
794 790 786 783 778 776 773 765 761 760 758 733 728 731 729 733 737 735 732 736 745 755 751 759 742 723 740 745 762 764 755 761 761 745 737 745 754 732 719 713 712 711 714 721 734
793 788 785 780 780 772 765 761 762 760 767 733 722 724 724 729 739 721 725 734 740 752 747 745 727 729 736 750 744 758 743 755 757 765 783 744 783 732 722 724 716 715 710 712 722
792 788 784 784 778 770 762 761 760 758 791 698 714 708 714 729 714 723 718 729 745 740 742 749 738 738 740 740 731 756 742 751 754 756 762 754 771 738 727 734 744 719 708 708 712
790 787 783 781 778 769 767 763 762 779 777 722 714 721 727 724 724 712 719 723 725 738 730 733 712 722 728 724 727 729 749 750 747 756 786 784 756 760 746 758 758 723 710 712 705
786 782 781 782 769 766 766 764 779 775 709 720 725 720 724 729 731 719 732 741 752 766 760 738 734 716 715 736 723 729 747 781 785 789 795 788 791 764 742 728 720 712 710 712 709
780 777 772 769 770 770 766 769 778 729 719 686 702 713 731 721 728 723 730 744 734 738 747 759 765 730 716 736 744 737 743 773 803 800 791 808 826 782 744 704 702 698 699 706 709
773 768 767 762 765 768 765 774 748 717 694 701 699 717 727 717 719 724 729 735 728 730 751 749 748 709 714 717 728 741 750 734 759 766 777 802 773 771 727 729 710 699 698 704 706
776 766 754 756 762 764 765 759 729 701 693 692 711 708 723 719 724 724 725 718 723 715 716 726 749 709 708 709 719 730 744 786 782 794 796 755 755 777 757 749 766 729 703 699 702
775 757 746 754 760 759 759 745 730 703 697 711 711 709 706 705 707 717 721 710 706 710 710 720 727 722 704 723 736 739 778 796 811 792 797 810 797 784 778 763 746 725 700 698 701
767 754 746 752 759 749 748 736 723 709 696 708 707 705 702 696 699 706 712 705 689 698 721 715 723 737 724 702 704 717 729 737 770 780 763 776 781 746 748 747 742 727 703 702 701
761 739 747 749 754 743 733 729 720 715 706 708 715 702 693 701 711 694 695 680 683 694 710 710 732 750 736 715 707 727 723 722 723 726 750 768 777 748 734 722 716 705 704 703 705
764 736 741 744 735 729 724 724 724 707 704 700 704 698 701 708 693 699 694 683 678 688 702 699 719 733 748 730 712 731 726 721 726 743 748 769 771 760 754 736 729 708 701 703 703
761 733 717 737 737 733 726 715 714 717 700 699 707 704 707 717 707 702 689 684 683 702 700 701 728 721 719 711 707 711 719 720 732 729 744 789 772 761 766 753 726 718 702 699 700
757 741 734 724 709 718 726 719 708 704 702 711 715 703 706 712 700 702 692 687 697 697 706 699 728 719 729 711 709 719 708 709 714 719 725 725 729 705 711 716 727 726 711 701 703
755 753 746 736 720 712 711 712 708 696 693 693 700 706 707 700 683 682 673 674 677 697 707 711 720 730 744 718 720 736 716 714 711 707 712 734 713 695 709 713 712 719 710 708 705